^^
Saratoga-Weather Station Historical Data
Daily Summary for January 19, 2021 Units:  Metric    English   Both
Daily Weekly Monthly Yearly Custom
  High: Low: Average:
Temperature: 3.7 °C 2.7 °C 3.1 °C
Dew Point: 2.7 °C 0.5 °C 1.3 °C
Humidity: 94% 83% 88%
Wind Speed: 22.5km/h 0km/h 4.3km/h
Wind Gust: 24.1km/h - -
Wind- - SSW
Pressure: 1022.7 hPa 1012.9 hPa -
Precipitation: 3.6 mm    
Historical Graphs
 
 
Tabular Data for January 19, 2021
Time Temperature Dew Point Pressure Wind Wind Speed Wind Gust Humidity Rainfall Rate (Hourly) solar
00:04 3 °C 1.2 °C 1022.7 hPa Calm   3.2 km/h 88% 0.0 mm 0 W/m2
00:09 3 °C 1.2 °C 1022.7 hPa Calm     88% 0.0 mm 0 W/m2
00:14 3 °C 1.2 °C 1022.7 hPa Calm   1.6 km/h 88% 0.0 mm 0 W/m2
00:19 2.9 °C 1.1 °C 1022.4 hPa Calm   1.6 km/h 88% 0.0 mm 0 W/m2
00:24 2.9 °C 1.1 °C 1022.4 hPa Calm     88% 0.0 mm 0 W/m2
00:29 2.8 °C 1 °C 1022.4 hPa SSE 3.2 km/h 9.7 km/h 88% 0.0 mm 0 W/m2
00:34 2.8 °C 1 °C 1022.4 hPa Calm   3.2 km/h 88% 0.0 mm 0 W/m2
00:39 2.8 °C 1 °C 1022.4 hPa ENE 3.2 km/h 9.7 km/h 88% 0.0 mm 0 W/m2
00:44 2.8 °C 1 °C 1022.0 hPa Calm   1.6 km/h 88% 0.0 mm 0 W/m2
00:49 2.8 °C 1 °C 1022.0 hPa East 3.2 km/h 4.8 km/h 88% 0.0 mm 0 W/m2
00:54 2.8 °C 1 °C 1022.0 hPa Calm   4.8 km/h 88% 0.0 mm 0 W/m2
00:59 2.8 °C 1 °C 1022.0 hPa ENE 3.2 km/h 6.4 km/h 88% 0.0 mm 0 W/m2
01:04 2.9 °C 1 °C 1022.0 hPa NNW 1.4 km/h 6.4 km/h 87% 0.0 mm 0 W/m2
01:09 3 °C 1 °C 1021.7 hPa North 1.4 km/h 8 km/h 87% 0.0 mm 0 W/m2
01:14 3 °C 1 °C 1021.7 hPa NW 6.4 km/h 8 km/h 87% 0.0 mm 0 W/m2
01:19 3.1 °C 1.1 °C 1021.7 hPa North 3.2 km/h 3.2 km/h 87% 0.0 mm 0 W/m2
01:24 3.1 °C 1.1 °C 1021.3 hPa ENE 3.2 km/h 4.8 km/h 87% 0.0 mm 0 W/m2
01:29 3.1 °C 1.1 °C 1021.7 hPa ENE 4.7 km/h 4.8 km/h 87% 0.0 mm 0 W/m2
01:34 3.1 °C 1.1 °C 1021.3 hPa ESE 4.7 km/h 9.7 km/h 87% 0.0 mm 0 W/m2
01:39 3.1 °C 1 °C 1021.3 hPa Calm   1.6 km/h 86% 0.0 mm 0 W/m2
01:44 3.1 °C 1 °C 1021.3 hPa ENE 1.4 km/h 6.4 km/h 86% 0.0 mm 0 W/m2
01:49 3.2 °C 1.1 °C 1021.3 hPa WNW 1.4 km/h 4.8 km/h 86% 0.0 mm 0 W/m2
01:54 3.2 °C 1.1 °C 1021.3 hPa East 1.4 km/h 9.7 km/h 86% 0.0 mm 0 W/m2
01:59 3.2 °C 1.1 °C 1021.3 hPa East 4.7 km/h 11.3 km/h 86% 0.0 mm 0 W/m2
02:04 3.2 °C 1.1 °C 1021.3 hPa ENE 3.2 km/h 4.8 km/h 86% 0.0 mm 0 W/m2
02:09 3.2 °C 1.1 °C 1021.0 hPa ENE 1.4 km/h 6.4 km/h 86% 0.0 mm 0 W/m2
02:14 3.1 °C 1 °C 1021.0 hPa NE 3.2 km/h 4.8 km/h 86% 0.0 mm 0 W/m2
02:19 3.2 °C 1.1 °C 1021.0 hPa NW 3.2 km/h 8 km/h 86% 0.0 mm 0 W/m2
02:24 3.2 °C 1.1 °C 1020.7 hPa Calm   6.4 km/h 86% 0.0 mm 0 W/m2
02:29 3.2 °C 1.1 °C 1020.7 hPa North 4.7 km/h 8 km/h 86% 0.0 mm 0 W/m2
02:34 3.2 °C 1.1 °C 1020.7 hPa ESE 1.4 km/h 4.8 km/h 86% 0.0 mm 0 W/m2
02:39 3.2 °C 0.9 °C 1020.7 hPa WNW 3.2 km/h 6.4 km/h 85% 0.0 mm 0 W/m2
02:44 3.2 °C 0.9 °C 1020.7 hPa Calm   4.8 km/h 85% 0.0 mm 0 W/m2
02:49 3.2 °C 1.1 °C 1020.7 hPa NW 3.2 km/h 8 km/h 86% 0.0 mm 0 W/m2
02:54 3.2 °C 0.9 °C 1020.7 hPa ESE 9.7 km/h 12.9 km/h 85% 0.0 mm 0 W/m2
02:59 3.2 °C 0.9 °C 1020.7 hPa WNW 4.7 km/h 4.8 km/h 85% 0.0 mm 0 W/m2
03:04 3.2 °C 0.9 °C 1020.7 hPa NNW 3.2 km/h 12.9 km/h 85% 0.0 mm 0 W/m2
03:09 3.2 °C 0.9 °C 1020.7 hPa East 3.2 km/h 3.2 km/h 85% 0.0 mm 0 W/m2
03:14 3.2 °C 0.9 °C 1020.7 hPa ENE 3.2 km/h 3.2 km/h 85% 0.0 mm 0 W/m2
03:19 3.2 °C 0.9 °C 1020.7 hPa WNW 1.4 km/h 6.4 km/h 85% 0.0 mm 0 W/m2
03:24 3.2 °C 0.9 °C 1020.3 hPa ENE 1.4 km/h 6.4 km/h 85% 0.0 mm 0 W/m2
03:29 3.1 °C 0.8 °C 1020.3 hPa NNW 3.2 km/h 8 km/h 85% 0.0 mm 0 W/m2
03:34 3.1 °C 0.8 °C 1020.0 hPa ENE 1.4 km/h 6.4 km/h 85% 0.0 mm 0 W/m2
03:39 3.1 °C 0.8 °C 1020.0 hPa NNE 3.2 km/h 8 km/h 85% 0.0 mm 0 W/m2
03:44 3.1 °C 1 °C 1020.0 hPa North 1.4 km/h 6.4 km/h 86% 0.0 mm 0 W/m2
03:49 3.1 °C 0.8 °C 1019.6 hPa West 1.4 km/h 6.4 km/h 85% 0.0 mm 0 W/m2
03:54 3.1 °C 1 °C 1019.6 hPa East 1.4 km/h 4.8 km/h 86% 0.0 mm 0 W/m2
03:59 3.1 °C 0.8 °C 1019.6 hPa NNE 4.7 km/h 6.4 km/h 85% 0.0 mm 0 W/m2
04:04 3.1 °C 0.8 °C 1019.6 hPa North 4.7 km/h 8 km/h 85% 0.0 mm 0 W/m2
04:09 3 °C 0.9 °C 1019.6 hPa NE 4.7 km/h 6.4 km/h 86% 0.0 mm 0 W/m2
04:14 3 °C 0.9 °C 1019.3 hPa East 1.4 km/h 3.2 km/h 86% 0.0 mm 0 W/m2
04:19 3 °C 0.9 °C 1019.3 hPa NE 1.4 km/h 4.8 km/h 86% 0.0 mm 0 W/m2
04:24 3 °C 0.9 °C 1019.3 hPa NNW 3.2 km/h 3.2 km/h 86% 0.0 mm 0 W/m2
04:29 3 °C 0.7 °C 1019.0 hPa NNE 6.4 km/h 6.4 km/h 85% 0.0 mm 0 W/m2
04:34 3.1 °C 0.8 °C 1019.0 hPa NE 1.4 km/h 6.4 km/h 85% 0.0 mm 0 W/m2
04:39 3.1 °C 0.8 °C 1019.0 hPa North 4.7 km/h 6.4 km/h 85% 0.0 mm 0 W/m2
04:44 3.1 °C 0.8 °C 1019.0 hPa NNE 3.2 km/h 4.8 km/h 85% 0.0 mm 0 W/m2
04:49 3.1 °C 0.8 °C 1019.0 hPa NNW 3.2 km/h 6.4 km/h 85% 0.0 mm 0 W/m2
04:54 3.1 °C 0.8 °C 1019.0 hPa SE 1.4 km/h 3.2 km/h 85% 0.0 mm 0 W/m2
04:59 3.1 °C 0.8 °C 1019.0 hPa NNW 1.4 km/h 4.8 km/h 85% 0.0 mm 0 W/m2
05:04 3 °C 0.7 °C 1019.0 hPa Calm   3.2 km/h 85% 0.0 mm 0 W/m2
05:09 2.9 °C 0.6 °C 1018.6 hPa Calm   3.2 km/h 85% 0.0 mm 0 W/m2
05:14 2.9 °C 0.6 °C 1018.6 hPa NE 3.2 km/h 6.4 km/h 85% 0.0 mm 0 W/m2
05:20 2.9 °C 0.6 °C 1018.6 hPa Calm   4.8 km/h 85% 0.0 mm 0 W/m2
05:25 2.8 °C 0.5 °C 1018.3 hPa NE 3.2 km/h 4.8 km/h 85% 0.0 mm 0 W/m2
05:30 2.9 °C 0.6 °C 1018.3 hPa North 3.2 km/h 6.4 km/h 85% 0.0 mm 0 W/m2
05:35 2.9 °C 0.6 °C 1018.3 hPa WNW 3.2 km/h 12.9 km/h 85% 0.0 mm 0 W/m2
05:40 2.9 °C 0.6 °C 1018.3 hPa North 1.4 km/h 6.4 km/h 85% 0.0 mm 0 W/m2
05:45 2.9 °C 0.6 °C 1018.3 hPa NE 4.7 km/h 9.7 km/h 85% 0.0 mm 0 W/m2
05:50 3 °C 0.7 °C 1018.3 hPa North 6.4 km/h 8 km/h 85% 0.0 mm 0 W/m2
05:55 3.1 °C 0.8 °C 1018.3 hPa Calm   4.8 km/h 85% 0.0 mm 0 W/m2
06:00 3.1 °C 0.8 °C 1018.0 hPa NNW 3.2 km/h 4.8 km/h 85% 0.0 mm 0 W/m2
06:05 3.1 °C 0.8 °C 1018.0 hPa ENE 4.7 km/h 6.4 km/h 85% 0.0 mm 0 W/m2
06:10 3.1 °C 0.8 °C 1018.0 hPa NE 1.4 km/h 6.4 km/h 85% 0.0 mm 0 W/m2
06:15 3.1 °C 0.8 °C 1017.6 hPa ENE 3.2 km/h 3.2 km/h 85% 0.0 mm 0 W/m2
06:20 3 °C 0.7 °C 1017.6 hPa ENE 3.2 km/h 14.5 km/h 85% 0.0 mm 0 W/m2
06:25 3 °C 0.7 °C 1017.6 hPa ENE 1.4 km/h 4.8 km/h 85% 0.0 mm 0 W/m2
06:30 3 °C 0.7 °C 1017.6 hPa North 3.2 km/h 11.3 km/h 85% 0.0 mm 0 W/m2
06:35 2.9 °C 0.6 °C 1017.6 hPa SE 4.7 km/h 9.7 km/h 85% 0.0 mm 0 W/m2
06:40 2.9 °C 0.6 °C 1017.6 hPa North 1.4 km/h 4.8 km/h 85% 0.0 mm 0 W/m2
06:45 2.9 °C 0.6 °C 1017.6 hPa NNE 1.4 km/h 14.5 km/h 85% 0.0 mm 0 W/m2
06:50 2.9 °C 0.6 °C 1017.3 hPa NW 3.2 km/h 12.9 km/h 85% 0.0 mm 0 W/m2
06:55 2.9 °C 0.6 °C 1017.3 hPa NE 4.7 km/h 4.8 km/h 85% 0.0 mm 0 W/m2
07:00 2.9 °C 0.6 °C 1017.3 hPa WNW 13 km/h 12.9 km/h 85% 0.0 mm 0 W/m2
07:05 2.8 °C 0.5 °C 1017.3 hPa NE 1.4 km/h 17.7 km/h 85% 0.0 mm 0 W/m2
07:10 2.8 °C 0.7 °C 1017.3 hPa North 1.4 km/h 8 km/h 86% 0.0 mm 0 W/m2
07:15 2.8 °C 0.7 °C 1016.9 hPa NE 1.4 km/h 17.7 km/h 86% 0.0 mm 0 W/m2
07:20 2.8 °C 0.7 °C 1016.9 hPa WNW 3.2 km/h 6.4 km/h 86% 0.0 mm 0 W/m2
07:25 2.8 °C 0.7 °C 1016.9 hPa ENE 3.2 km/h 3.2 km/h 86% 0.0 mm 0 W/m2
07:30 2.7 °C 0.6 °C 1016.9 hPa WNW 4.7 km/h 8 km/h 86% 0.0 mm 0 W/m2
07:35 2.7 °C 0.6 °C 1016.9 hPa NW 4.7 km/h 4.8 km/h 86% 0.0 mm 0 W/m2
07:40 2.7 °C 0.6 °C 1017.3 hPa North 3.2 km/h 4.8 km/h 86% 0.0 mm 0 W/m2
07:45 2.8 °C 0.7 °C 1016.9 hPa WSW 3.2 km/h 8 km/h 86% 0.0 mm 0 W/m2
07:50 2.8 °C 0.7 °C 1016.6 hPa NNE 1.4 km/h 6.4 km/h 86% 0.0 mm 0 W/m2
07:55 2.8 °C 0.7 °C 1016.6 hPa ENE 4.7 km/h 6.4 km/h 86% 0.0 mm 0 W/m2
08:00 2.8 °C 0.7 °C 1016.3 hPa NNE 7.9 km/h 11.3 km/h 86% 0.0 mm 0 W/m2
08:05 2.9 °C 0.8 °C 1016.3 hPa NNW 4.7 km/h 8 km/h 86% 0.0 mm 0 W/m2
08:10 2.9 °C 0.8 °C 1016.3 hPa Calm   11.3 km/h 86% 0.0 mm 0 W/m2
08:15 2.9 °C 0.6 °C 1016.3 hPa NW 1.4 km/h 6.4 km/h 85% 0.0 mm 0 W/m2
08:20 3 °C 0.7 °C 1016.3 hPa NW 3.2 km/h 12.9 km/h 85% 0.0 mm 0 W/m2
08:25 3.1 °C 0.8 °C 1016.3 hPa WNW 1.4 km/h 4.8 km/h 85% 0.0 mm 0 W/m2
08:30 3.1 °C 0.7 °C 1016.3 hPa WNW 4.7 km/h 12.9 km/h 84% 0.0 mm 0 W/m2
08:35 3.2 °C 0.8 °C 1015.9 hPa WNW 1.4 km/h 11.3 km/h 84% 0.0 mm 7 W/m2
08:40 3.2 °C 0.8 °C 1015.9 hPa NNW 1.4 km/h 14.5 km/h 84% 0.0 mm 9 W/m2
08:45 3.3 °C 0.9 °C 1015.9 hPa WNW 6.4 km/h 6.4 km/h 84% 0.0 mm 12 W/m2
08:50 3.3 °C 0.9 °C 1015.9 hPa NW 3.2 km/h 14.5 km/h 84% 0.0 mm 16 W/m2
08:55 3.3 °C 0.9 °C 1015.9 hPa North 6.4 km/h 9.7 km/h 84% 0.0 mm 21 W/m2
09:01 3.4 °C 0.8 °C 1015.9 hPa WNW 11.1 km/h 11.3 km/h 83% 0.0 mm 23 W/m2
09:06 3.4 °C 0.8 °C 1015.6 hPa SW 4.7 km/h 11.3 km/h 83% 0.0 mm 25 W/m2
09:11 3.5 °C 0.9 °C 1015.6 hPa Calm   14.5 km/h 83% 0.0 mm 26 W/m2
09:16 3.5 °C 0.9 °C 1015.6 hPa NW 6.4 km/h 9.7 km/h 83% 0.0 mm 30 W/m2
09:21 3.6 °C 1 °C 1015.6 hPa South 3.2 km/h 9.7 km/h 83% 0.0 mm 33 W/m2
09:26 3.6 °C 1 °C 1015.6 hPa WNW 14.3 km/h 19.3 km/h 83% 0.0 mm 35 W/m2
09:31 3.6 °C 1 °C 1015.6 hPa NE 1.4 km/h 6.4 km/h 83% 0.0 mm 33 W/m2
09:36 3.6 °C 1 °C 1015.6 hPa NW 4.7 km/h 19.3 km/h 83% 0.0 mm 28 W/m2
09:41 3.6 °C 1.2 °C 1015.6 hPa West 9.7 km/h 24.1 km/h 84% 0.0 mm 25 W/m2
09:46 3.5 °C 1.1 °C 1015.6 hPa WNW 11.1 km/h 11.3 km/h 84% 0.2 mm 26 W/m2
09:51 3.4 °C 1.1 °C 1015.6 hPa ENE 1.4 km/h 24.1 km/h 85% 0.2 mm 33 W/m2
09:56 3.4 °C 1.1 °C 1015.6 hPa WSW 3.2 km/h 8 km/h 85% 0.5 mm 32 W/m2
10:01 3.3 °C 1.2 °C 1015.6 hPa West 4.7 km/h 9.7 km/h 86% 0.5 mm 30 W/m2
10:06 3.3 °C 1.2 °C 1015.6 hPa SW 3.2 km/h 14.5 km/h 86% 0.5 mm 28 W/m2
10:11 3.2 °C 1.2 °C 1015.2 hPa ENE 6.4 km/h 6.4 km/h 87% 0.5 mm 33 W/m2
10:16 3.2 °C 1.4 °C 1015.2 hPa WSW 3.2 km/h 14.5 km/h 88% 0.5 mm 37 W/m2
10:21 3.2 °C 1.4 °C 1015.6 hPa NW 4.7 km/h 9.7 km/h 88% 0.8 mm 33 W/m2
10:26 3.1 °C 1.5 °C 1015.6 hPa NNE 4.7 km/h 4.8 km/h 89% 0.8 mm 37 W/m2
10:31 3.1 °C 1.5 °C 1015.6 hPa WSW 6.4 km/h 12.9 km/h 89% 1.0 mm 46 W/m2
10:36 3.1 °C 1.5 °C 1015.6 hPa Calm   16.1 km/h 89% 1.3 mm 46 W/m2
10:41 3.1 °C 1.6 °C 1015.6 hPa ENE 6.4 km/h 8 km/h 90% 1.3 mm 53 W/m2
10:46 3.1 °C 1.6 °C 1015.6 hPa West 9.7 km/h 9.7 km/h 90% 1.0 mm 37 W/m2
10:51 3.1 °C 1.6 °C 1015.2 hPa WNW 6.4 km/h 8 km/h 90% 1.3 mm 40 W/m2
10:56 3.1 °C 1.6 °C 1015.2 hPa North 6.4 km/h 12.9 km/h 90% 1.3 mm 42 W/m2
11:01 3.1 °C 1.8 °C 1015.2 hPa WNW 4.7 km/h 11.3 km/h 91% 1.3 mm 40 W/m2
11:06 3.1 °C 1.8 °C 1015.2 hPa NNW 4.7 km/h 8 km/h 91% 1.3 mm 46 W/m2
11:11 3.1 °C 1.8 °C 1015.2 hPa NNW 6.4 km/h 11.3 km/h 91% 1.3 mm 46 W/m2
11:16 3 °C 1.8 °C 1015.2 hPa WNW 4.7 km/h 9.7 km/h 92% 1.5 mm 35 W/m2
11:21 3 °C 1.8 °C 1015.2 hPa SSE 6.4 km/h 12.9 km/h 92% 1.3 mm 33 W/m2
11:26 3 °C 1.8 °C 1015.2 hPa NNE 3.2 km/h 9.7 km/h 92% 1.5 mm 37 W/m2
11:31 3 °C 1.8 °C 1015.2 hPa WSW 6.4 km/h 14.5 km/h 92% 1.5 mm 47 W/m2
11:36 3.1 °C 1.9 °C 1015.2 hPa NNE 7.9 km/h 12.9 km/h 92% 1.3 mm 54 W/m2
11:41 3.1 °C 1.9 °C 1014.9 hPa North 6.4 km/h 11.3 km/h 92% 1.5 mm 54 W/m2
11:46 3.1 °C 1.9 °C 1014.9 hPa NE 3.2 km/h 8 km/h 92% 1.3 mm 56 W/m2
11:51 3.1 °C 1.9 °C 1014.9 hPa WNW 6.4 km/h 12.9 km/h 92% 1.3 mm 62 W/m2
11:56 3.1 °C 1.9 °C 1014.9 hPa ESE 3.2 km/h 19.3 km/h 92% 1.0 mm 56 W/m2
12:01 3.1 °C 2.1 °C 1014.9 hPa NNW 4.7 km/h 8 km/h 93% 1.0 mm 44 W/m2
12:06 3.1 °C 2.1 °C 1014.9 hPa NNW 4.7 km/h 14.5 km/h 93% 0.8 mm 53 W/m2
12:11 3.2 °C 2.2 °C 1014.9 hPa NW 4.7 km/h 12.9 km/h 93% 1.0 mm 51 W/m2
12:16 3.2 °C 2.2 °C 1014.6 hPa ESE 1.4 km/h 16.1 km/h 93% 0.8 mm 58 W/m2
12:21 3.2 °C 2.2 °C 1014.6 hPa North 3.2 km/h 22.5 km/h 93% 0.8 mm 58 W/m2
12:26 3.2 °C 2.2 °C 1014.6 hPa NNW 3.2 km/h 4.8 km/h 93% 0.5 mm 63 W/m2
12:31 3.2 °C 2.2 °C 1014.6 hPa NW 3.2 km/h 22.5 km/h 93% 0.5 mm 67 W/m2
12:36 3.2 °C 2.2 °C 1014.6 hPa WNW 7.9 km/h 11.3 km/h 93% 0.5 mm 70 W/m2
12:41 3.2 °C 2.2 °C 1014.6 hPa ENE 17.7 km/h 17.7 km/h 93% 0.5 mm 72 W/m2
12:46 3.2 °C 2.2 °C 1014.2 hPa NW 1.4 km/h 20.9 km/h 93% 0.5 mm 62 W/m2
12:51 3.2 °C 2.3 °C 1014.2 hPa North 3.2 km/h 14.5 km/h 94% 0.5 mm 58 W/m2
12:56 3.3 °C 2.4 °C 1014.2 hPa WNW 4.7 km/h 20.9 km/h 94% 0.5 mm 81 W/m2
13:02 3.3 °C 2.4 °C 1013.9 hPa NNW 9.7 km/h 16.1 km/h 94% 0.5 mm 79 W/m2
13:07 3.3 °C 2.4 °C 1013.9 hPa NW 6.4 km/h 14.5 km/h 94% 0.5 mm 79 W/m2
13:12 3.3 °C 2.4 °C 1013.9 hPa North 6.4 km/h 12.9 km/h 94% 0.5 mm 63 W/m2
13:17 3.3 °C 2.4 °C 1013.9 hPa WNW 3.2 km/h 12.9 km/h 94% 0.5 mm 63 W/m2
13:22 3.3 °C 2.4 °C 1013.9 hPa NW 4.7 km/h 16.1 km/h 94% 0.5 mm 58 W/m2
13:27 3.3 °C 2.4 °C 1013.9 hPa NNW 4.7 km/h 6.4 km/h 94% 0.5 mm 70 W/m2
13:32 3.3 °C 2.4 °C 1013.9 hPa WNW 11.1 km/h 16.1 km/h 94% 0.5 mm 84 W/m2
13:37 3.4 °C 2.5 °C 1013.9 hPa North 4.7 km/h 12.9 km/h 94% 0.5 mm 65 W/m2
13:42 3.4 °C 2.5 °C 1013.9 hPa NW 6.4 km/h 11.3 km/h 94% 0.2 mm 72 W/m2
13:47 3.4 °C 2.5 °C 1013.5 hPa NW 4.7 km/h 14.5 km/h 94% 0.2 mm 72 W/m2
13:52 3.4 °C 2.5 °C 1013.5 hPa NNW 3.2 km/h 19.3 km/h 94% 0.2 mm 58 W/m2
13:57 3.4 °C 2.5 °C 1013.5 hPa NNW 4.7 km/h 9.7 km/h 94% 0.2 mm 56 W/m2
14:02 3.4 °C 2.5 °C 1013.5 hPa West 11.1 km/h 19.3 km/h 94% 0.2 mm 74 W/m2
14:07 3.4 °C 2.4 °C 1013.5 hPa NW 4.7 km/h 20.9 km/h 93% 0.0 mm 76 W/m2
14:12 3.5 °C 2.5 °C 1013.5 hPa WNW 16.3 km/h 22.5 km/h 93% 0.0 mm 74 W/m2
14:17 3.6 °C 2.6 °C 1013.5 hPa West 3.2 km/h 11.3 km/h 93% 0.0 mm 97 W/m2
14:22 3.6 °C 2.6 °C 1013.5 hPa NW 22.5 km/h 22.5 km/h 93% 0.0 mm 69 W/m2
14:27 3.6 °C 2.6 °C 1013.5 hPa WNW 14.3 km/h 14.5 km/h 93% 0.0 mm 84 W/m2
14:32 3.6 °C 2.6 °C 1013.2 hPa WNW 11.1 km/h 16.1 km/h 93% 0.0 mm 69 W/m2
14:37 3.7 °C 2.7 °C 1013.2 hPa SW 16.3 km/h 16.1 km/h 93% 0.0 mm 62 W/m2
14:42 3.6 °C 2.6 °C 1013.2 hPa WNW 4.7 km/h 9.7 km/h 93% 0.0 mm 65 W/m2
14:47 3.7 °C 2.7 °C 1013.2 hPa West 3.2 km/h 12.9 km/h 93% 0.0 mm 74 W/m2
14:52 3.7 °C 2.7 °C 1013.2 hPa West 16.3 km/h 16.1 km/h 93% 0.2 mm 79 W/m2
14:57 3.7 °C 2.7 °C 1012.9 hPa NW 6.4 km/h 12.9 km/h 93% 0.2 mm 102 W/m2
15:02 3.7 °C 2.7 °C 1013.2 hPa NW 4.7 km/h 11.3 km/h 93% 0.5 mm 97 W/m2
15:07 3.7 °C 2.7 °C 1013.2 hPa NNW 13 km/h 12.9 km/h 93% 0.5 mm 65 W/m2
Juneau County Weather
Compliments of Weather Underground - 4 mb